Location: Mantua Corners
(41.3103°N, 81.2212°W)
Time: 10:12:42
(UTC+00:00)

ARIANE 6 FM1 Upper Stage - Visible Passes

Search period start: 10 October 2024 00:00
Search period end: 20 October 2024 00:00
Orbit: 563 x 594 km, 62.0° (Epoch: 09 October)

Date Brightness Start Highest point End Pass type
(mag) Time Alt. Az. Time Alt. Az. Time Alt. Az.
14 Oct 5.2 00:53:08 10° N 00:53:57 12° N 00:53:57 12° N visible
15 Oct 5.0 00:56:54 10° N 00:58:10 15° N 00:58:10 15° N visible
16 Oct 4.9 01:00:50 10° NNW 01:02:24 18° N 01:02:24 18° N visible
17 Oct 4.7 01:04:52 10° NNW 01:06:40 22° N 01:06:40 22° N visible
17 Oct 4.9 23:31:23 10° N 23:33:09 12° NNE 23:34:43 10° NE visible
18 Oct 4.5 01:08:59 10° NNW 01:11:00 26° NNW 01:11:00 26° NNW visible
18 Oct 4.5 23:34:53 10° N 23:37:42 16° NE 23:39:07 14° ENE visible
19 Oct 4.5 01:13:10 10° NW 01:15:25 30° NW 01:15:25 30° NW visible
19 Oct 4.1 23:38:40 10° NNW 23:42:08 23° NE 23:43:36 19° ENE visible
